Regional Weather Roundup
Issued by NWS

Home | Current Version | Previous Version | Text Only | Print | Product List | Glossary Off
Versions: 1 2 3 4 5 6 7 8 9 10 11 12 13 14 15 16 17 18 19 20 21 22 23 24 25 26 27 28 29 30 31 32 33 34 35 36 37 38 39 40 41 42 43 44 45 46 47 48 49 50

000
ASUS43 KOAX 200910
RWRNE

WEATHER ROUNDUP FOR NEBRASKA
NATIONAL WEATHER SERVICE OMAHA NE
400 AM CDT THU JUL 20 2017

NOTES: SATELLITE DATA IS BEING USED TO AUGMENT CLOUD COVER ABOVE
       12000 FEET.
       "FAIR" INDICATES FEW OR NO CLOUDS BELOW 12,000 FEET WITH NO
       SIGNIFICANT WEATHER AND/OR OBSTRUCTIONS TO VISIBILITY.


NEZ001>004-019>022-054>056-201000-
NEBRASKA PANHANDLE

CITY           SKY/WX    TMP DP  RH WIND       PRES   REMARKS
SCOTTSBLUFF    CLOUDY    69  63  81 S7        30.10F
ALLIANCE       CLOUDY    67  63  87 VRB3      30.10R
CHADRON        LGT RAIN  68  65  90 SE3       30.07F
GORDON         RAIN      68  66  94 N6        30.13F
KIMBALL        MOCLDY    66  62  85 N5        30.18R
SIDNEY         PTCLDY    68  63  84 N13       30.15R
$$

NEZ057>060-069>072-079>082-201000-
SOUTHWEST NEBRASKA

CITY           SKY/WX    TMP DP  RH WIND       PRES   REMARKS
NORTH PLATTE   CLOUDY    76  66  71 NE14      30.02R
IMPERIAL       CLEAR     70  60  70 E5        30.00R
LEXINGTON      PTCLDY    73  65  75 E6        30.01S
MCCOOK         CLOUDY    75  59  57 CALM      29.97F
OGALLALA       MOCLDY    76  60  57 NE15G21   30.04F
$$

NEZ005>010-023>029-035>040-094-201000-
NORTH CENTRAL NEBRASKA

CITY           SKY/WX    TMP DP  RH WIND       PRES   REMARKS
VALENTINE      CLOUDY    78  63  59 W13       30.05R
AINSWORTH      CLOUDY    76  62  62 W15G21    30.05S
BROKEN BOW     CLOUDY    77  62  59 NE10      30.03F
O`NEILL        CLOUDY    77  65  66 N17       29.99R
ORD            CLOUDY    73  66  78 SW5       30.01F
THEDFORD       LGT RAIN  72  65  78 SE5       30.09R
$$

NEZ041-046>049-061>064-073>077-083>087-201000-
SOUTH CENTRAL NEBRASKA

CITY           SKY/WX    TMP DP  RH WIND       PRES   REMARKS
GRAND ISLAND   CLOUDY    75  69  81 N5        30.00F
AURORA         MOCLDY    74  68  83 E3        30.01S
HASTINGS       CLOUDY    71  65  81 NE7       30.01R
HEBRON         CLOUDY    79  67  66 S7        29.99R
HOLDREGE       CLOUDY    75  61  60 S7        29.99S
KEARNEY        CLOUDY    81  62  52 VRB6      30.01R
YORK           PTCLDY    73  68  83 CALM      30.01S
$$

NEZ011>018-030>034-042>045-201000-
NORTHEAST NEBRASKA

CITY           SKY/WX    TMP DP  RH WIND       PRES   REMARKS
NORFOLK        CLOUDY    82  63  52 S16       29.90F
ALBION         MOCLDY    76  67  75 NW9       29.99R
BLAIR          HVY RAIN  80  71  73 S8        29.95F
COLUMBUS       CLOUDY    80  69  69 S12       29.95F
FREMONT        PTCLDY    83  67  59 SW9       29.94F
TEKAMAH        CLOUDY    81  69  67 SE5       29.91R
WAYNE          CLOUDY    78  78  98 N3        29.93S
$$

NEZ050>053-065>068-078-088>093-201000-
SOUTHEAST NEBRASKA

CITY           SKY/WX    TMP DP  RH WIND       PRES   REMARKS
LINCOLN        CLOUDY    82  69  64 W9        29.98R
OMAHA EPPLEY   MOCLDY    83  69  62 VRB6      29.95R
BEATRICE       PTCLDY    80  68  67 S6        29.99R
FALLS CITY     CLEAR     78  71  79 S10       29.97
NEBRASKA CITY  CLOUDY    78  73  85 SW9       29.97R
PLATTSMOUTH    PTCLDY    78  69  73 SW10      29.96R
$$

NEZ044-045-051>053-067-201000-
OMAHA AREA

CITY           SKY/WX    TMP DP  RH WIND       PRES   REMARKS
OMAHA EPPLEY   MOCLDY    83  69  62 VRB6      29.95R
BLAIR          HVY RAIN  80  71  73 S8        29.95F
FREMONT        PTCLDY    83  67  59 SW9       29.94F
MILLARD        MOCLDY    83  72  69 SW5       29.95F
OFFUTT AFB     CLOUDY    79  69  71 W3        29.95R
PLATTSMOUTH    PTCLDY    78  69  73 SW10      29.96R
WAHOO          FAIR      79  69  70 S5        29.96F
$$




USA.gov is the U.S. government's official web portal to all federal, state and local government web resources and services.